When you browse on this site, cookies collect data to enhance your experience and personalize the content and advertising you see.
Visit our Privacy Policy to learn more. By continuing to use the site, you agree to this use of cookies and data.
  • In United Kingdom
  • List of Countries
  • For 7 days
  • Water Temperature
  • Satellite Maps
  • Weather Map
  • Weather Widgets
  • user-avatar
    Login

    Hourly Weather Manizales

    Today, 25 June, Tuesday

    Time Temperature Precipitation Wind Pressure Humidity
    00:00 +14°C° 0.8 mm 0 mps 602 mmHg 97%
    01:00 +14°C° 0.8 mm 0 mps 602 mmHg 97%
    02:00 +14°C° 0.8 mm 0 mps 602 mmHg 97%
    03:00 +14°C° 0.8 mm 0 mps 602 mmHg 97%
    04:00 +14°C° 0.8 mm 0 mps 602 mmHg 97%
    05:00 +14°C° 0.5 mm 0 mps 602 mmHg 96%
    06:00 +14°C° 0.5 mm 0 mps 602 mmHg 96%
    07:00 +15°C° 0.5 mm 0 mps 602 mmHg 95%
    08:00 +16°C° 0.1 mm 0 mps 603 mmHg 88%
    09:00 +20°C° 0.1 mm 1 mps 604 mmHg 81%
    10:00 +22°C° 0.1 mm 1 mps 605 mmHg 74%
    11:00 +22°C° 0.7 mm 1 mps 604 mmHg 76%
    12:00 +22°C° 0.7 mm 1 mps 604 mmHg 78%
    13:00 +22°C° 0.7 mm 1 mps 603 mmHg 80%
    14:00 +20°C° 1 mm 0 mps 603 mmHg 83%
    15:00 +19°C° 1 mm 0 mps 602 mmHg 86%
    16:00 +18°C° 1 mm 0 mps 601 mmHg 90%
    17:00 +17°C° 1 mm 0 mps 601 mmHg 92%
    18:00 +16°C° 1 mm 0 mps 601 mmHg 94%
    19:00 +16°C° 1 mm 0 mps 601 mmHg 97%
    20:00 +15°C° 0.5 mm 0 mps 602 mmHg 97%
    21:00 +15°C° 0.5 mm 0 mps 602 mmHg 97%
    22:00 +15°C° 0.5 mm 0 mps 603 mmHg 97%
    23:00 +16°C° 2 mm 1 mps 602 mmHg 97%

    Tomorrow, 26 June, Wednesday

    Time Temperature Precipitation Wind Pressure Humidity
    00:00 +16°C° 2 mm 1 mps 602 mmHg 97%
    01:00 +15°C° 2 mm 1 mps 602 mmHg 97%
    02:00 +15°C° 2.7 mm 1 mps 602 mmHg 97%
    03:00 +15°C° 2.7 mm 1 mps 601 mmHg 97%
    04:00 +15°C° 2.7 mm 1 mps 601 mmHg 97%
    05:00 +15°C° 0.8 mm 1 mps 601 mmHg 96%
    06:00 +15°C° 0.8 mm 1 mps 602 mmHg 96%
    07:00 +15°C° 0.8 mm 1 mps 602 mmHg 95%
    08:00 +18°C° 0.3 mm 1 mps 603 mmHg 89%
    09:00 +20°C° 0.3 mm 1 mps 603 mmHg 83%
    10:00 +19°C° 0.3 mm 0 mps 604 mmHg 77%
    11:00 +22°C° 0.2 mm 1 mps 603 mmHg 74%
    12:00 +23°C° 0.2 mm 1 mps 603 mmHg 70%
    13:00 +23°C° 0.2 mm 1 mps 603 mmHg 67%
    14:00 +23°C° 0.5 mm 1 mps 602 mmHg 70%
    15:00 +23°C° 0.5 mm 1 mps 601 mmHg 74%
    16:00 +22°C° 0.5 mm 1 mps 601 mmHg 77%
    17:00 +21°C° 0.5 mm 1 mps 600 mmHg 82%
    18:00 +19°C° 0.5 mm 1 mps 600 mmHg 87%
    19:00 +18°C° 0.5 mm 1 mps 600 mmHg 92%
    20:00 +18°C° 0.4 mm 1 mps 601 mmHg 91%
    21:00 +16°C° 0.4 mm 1 mps 601 mmHg 90%
    22:00 +15°C° 0.4 mm 1 mps 601 mmHg 89%
    23:00 +15°C° 0.2 mm 1 mps 601 mmHg 89%

    Day after tomorrow, 27 June, Thursday

    Time Temperature Precipitation Wind Pressure Humidity
    00:00 +15°C° 0.2 mm 1 mps 601 mmHg 89%
    01:00 +15°C° 0.2 mm 1 mps 601 mmHg 89%
    02:00 +15°C° 0.6 mm 1 mps 601 mmHg 89%
    03:00 +15°C° 0.6 mm 1 mps 600 mmHg 90%
    04:00 +14°C° 0.6 mm 0 mps 600 mmHg 90%
    05:00 +14°C° 0.2 mm 0 mps 601 mmHg 90%
    06:00 +15°C° 0.2 mm 0 mps 601 mmHg 89%
    07:00 +15°C° 0.2 mm 0 mps 601 mmHg 88%
    08:00 +17°C° 0.2 mm 0 mps 602 mmHg 85%
    09:00 +20°C° 0.2 mm 1 mps 603 mmHg 81%
    10:00 +22°C° 0.2 mm 1 mps 604 mmHg 77%
    11:00 +22°C° 1.1 mm 1 mps 603 mmHg 78%
    12:00 +23°C° 1.1 mm 1 mps 603 mmHg 79%
    13:00 +23°C° 1.1 mm 1 mps 602 mmHg 79%
    14:00 +23°C° 1.4 mm 1 mps 602 mmHg 82%
    15:00 +20°C° 1.4 mm 0 mps 601 mmHg 84%
    16:00 +20°C° 1.4 mm 0 mps 601 mmHg 87%
    17:00 +18°C° 2 mm 0 mps 600 mmHg 90%
    18:00 +19°C° 2 mm 1 mps 600 mmHg 93%
    19:00 +16°C° 2 mm 1 mps 600 mmHg 96%
    20:00 +16°C° 0.8 mm 1 mps 601 mmHg 96%
    21:00 +15°C° 0.8 mm 1 mps 601 mmHg 95%
    22:00 +15°C° 0.8 mm 1 mps 602 mmHg 95%
    23:00 +15°C° 0.2 mm 1 mps 601 mmHg 93%

    28 June, Friday

    Time Temperature Precipitation Wind Pressure Humidity
    00:00 +14°C° 0.2 mm 1 mps 601 mmHg 92%
    01:00 +14°C° 0.2 mm 1 mps 601 mmHg 91%
    02:00 +14°C° 0.1 mm 1 mps 600 mmHg 90%
    03:00 +14°C° 0.1 mm 1 mps 600 mmHg 89%
    04:00 +14°C° 0.1 mm 1 mps 600 mmHg 88%
    05:00 +14°C° 0 mm 1 mps 601 mmHg 87%
    06:00 +15°C° 0 mm 1 mps 601 mmHg 86%
    07:00 +16°C° 0 mm 1 mps 602 mmHg 85%
    08:00 +19°C° 0 mm 1 mps 603 mmHg 79%
    09:00 +21°C° 0 mm 1 mps 604 mmHg 72%
    10:00 +23°C° 0 mm 1 mps 605 mmHg 66%
    11:00 +23°C° 0.4 mm 1 mps 604 mmHg 67%
    12:00 +24°C° 0.4 mm 1 mps 604 mmHg 68%
    13:00 +24°C° 0.4 mm 1 mps 603 mmHg 69%
    14:00 +24°C° 0.8 mm 1 mps 602 mmHg 72%
    15:00 +23°C° 0.8 mm 1 mps 602 mmHg 75%
    16:00 +23°C° 0.8 mm 1 mps 601 mmHg 78%
    17:00 +21°C° 0.7 mm 1 mps 601 mmHg 84%
    18:00 +19°C° 0.7 mm 1 mps 601 mmHg 89%
    19:00 +16°C° 0.7 mm 1 mps 600 mmHg 94%
    20:00 +16°C° 0.7 mm 1 mps 601 mmHg 93%
    21:00 +15°C° 0.7 mm 1 mps 601 mmHg 92%
    22:00 +15°C° 0.7 mm 1 mps 601 mmHg 91%
    23:00 +15°C° 0.5 mm 1 mps 601 mmHg 90%

    29 June, Saturday

    Time Temperature Precipitation Wind Pressure Humidity
    00:00 +15°C° 0.5 mm 1 mps 601 mmHg 89%
    01:00 +15°C° 0.5 mm 1 mps 601 mmHg 88%
    02:00 +15°C° 0.1 mm 1 mps 601 mmHg 87%
    03:00 +15°C° 0.1 mm 1 mps 601 mmHg 87%
    04:00 +15°C° 0.1 mm 1 mps 600 mmHg 87%
    05:00 +15°C° 0 mm 1 mps 601 mmHg 86%
    06:00 +16°C° 0 mm 1 mps 601 mmHg 85%
    07:00 +16°C° 0 mm 1 mps 602 mmHg 84%
    08:00 +19°C° 0 mm 1 mps 603 mmHg 76%
    09:00 +21°C° 0 mm 1 mps 603 mmHg 69%
    10:00 +23°C° 0 mm 1 mps 604 mmHg 61%
    11:00 +24°C° 0.2 mm 1 mps 604 mmHg 59%
    12:00 +25°C° 0.2 mm 1 mps 604 mmHg 56%
    13:00 +26°C° 0.2 mm 1 mps 604 mmHg 54%
    14:00 +25°C° 0.6 mm 1 mps 603 mmHg 61%
    15:00 +24°C° 0.6 mm 1 mps 602 mmHg 69%
    16:00 +23°C° 0.6 mm 1 mps 601 mmHg 76%
    17:00 +21°C° 0.6 mm 1 mps 601 mmHg 82%
    18:00 +19°C° 0.6 mm 1 mps 601 mmHg 87%
    19:00 +16°C° 0.6 mm 2 mps 601 mmHg 92%
    20:00 +16°C° 0.6 mm 2 mps 601 mmHg 91%
    21:00 +15°C° 0.6 mm 1 mps 601 mmHg 89%
    22:00 +15°C° 0.6 mm 1 mps 601 mmHg 88%
    23:00 +15°C° 0.3 mm 1 mps 601 mmHg 86%

    30 June, Sunday

    Time Temperature Precipitation Wind Pressure Humidity
    00:00 +15°C° 0.3 mm 1 mps 601 mmHg 83%
    01:00 +15°C° 0.3 mm 1 mps 601 mmHg 81%
    02:00 +15°C° 0 mm 1 mps 601 mmHg 82%
    03:00 +15°C° 0 mm 1 mps 600 mmHg 83%
    04:00 +15°C° 0 mm 1 mps 600 mmHg 84%
    05:00 +15°C° 0 mm 1 mps 601 mmHg 84%
    06:00 +16°C° 0 mm 1 mps 601 mmHg 84%
    07:00 +15°C° 0 mm 0 mps 602 mmHg 84%
    08:00 +19°C° 0 mm 1 mps 603 mmHg 77%
    09:00 +21°C° 0 mm 1 mps 603 mmHg 71%
    10:00 +23°C° 0 mm 1 mps 604 mmHg 65%
    11:00 +23°C° 0.4 mm 1 mps 604 mmHg 65%
    12:00 +24°C° 0.4 mm 1 mps 603 mmHg 66%
    13:00 +24°C° 0.4 mm 1 mps 603 mmHg 66%
    14:00 +23°C° 1.1 mm 1 mps 602 mmHg 75%
    15:00 +21°C° 1.1 mm 1 mps 601 mmHg 83%
    16:00 +20°C° 1.1 mm 1 mps 600 mmHg 92%
    17:00 +19°C° 0.8 mm 1 mps 601 mmHg 93%
    18:00 +18°C° 0.8 mm 1 mps 601 mmHg 94%
    19:00 +16°C° 0.8 mm 1 mps 601 mmHg 94%
    20:00 +16°C° 0.1 mm 1 mps 601 mmHg 93%
    21:00 +15°C° 0.1 mm 1 mps 602 mmHg 92%
    22:00 +15°C° 0.1 mm 1 mps 602 mmHg 91%
    23:00 +15°C° 0.1 mm 1 mps 602 mmHg 90%
    Show more